GW3513 Weather Reports


time (UTC)temp
C
wind
direction
speed
KPH
gust
KPH
rain 1hr
cm
rain 24hr
cm
rain mn
cm
humidity
%
barometer
mb
20260510203322 24 161 0.0 0.0 0.00 0.00 0.00 43 1021.9
20260510202822 25 161 0.0 0.0 0.00 0.00 0.00 35 1021.7
20260510202318 25 161 0.0 0.0 0.00 0.00 0.00 37 1021.8
20260510201815 25 161 0.0 0.0 0.00 0.00 0.00 39 1022.0
20260510201312 26 161 0.0 0.0 0.00 0.00 0.00 36 1021.9
20260510200808 26 161 0.0 0.0 0.00 0.00 0.00 37 1021.9
20260510200306 27 161 0.0 0.0 0.00 0.00 0.00 35 1021.9
20260510195802 28 161 0.0 0.0 0.00 0.00 0.00 34 1022.0
20260510195258 30 161 0.0 0.0 0.00 0.00 0.00 32 1022.0
20260510194753 30 161 0.0 0.0 0.00 0.00 0.00 30 1021.9
20260510194250 31 161 0.0 0.0 0.00 0.00 0.00 30 1022.0
20260510193746 31 161 0.0 0.0 0.00 0.00 0.00 28 1022.0
20260510193245 30 161 0.0 0.0 0.00 0.00 0.00 32 1022.1
20260510192736 29 161 0.0 0.0 0.00 0.00 0.00 34 1022.1
20260510192232 30 161 0.0 0.0 0.00 0.00 0.00 32 1022.0
20260510191728 30 161 0.0 0.0 0.00 0.00 0.00 32 1022.1
20260510191224 30 161 0.0 0.0 0.00 0.00 0.00 32 1022.2
20260510190722 31 161 0.0 0.0 0.00 0.00 0.00 31 1021.9
20260510190219 31 161 0.0 0.0 0.00 0.00 0.00 30 1022.2
20260510185716 30 161 0.0 0.0 0.00 0.00 0.00 32 1022.3
20260510185214 30 161 0.0 0.0 0.00 0.00 0.00 33 1022.3
20260510184710 30 161 0.0 0.0 0.00 0.00 0.00 33 1022.2
20260510184207 29 161 0.0 0.0 0.00 0.00 0.00 37 1022.1
20260510183702 29 161 0.0 0.0 0.00 0.00 0.00 33 1022.2
20260510183157 30 161 0.0 0.0 0.00 0.00 0.00 32 1022.2
20260510182654 30 161 0.0 0.0 0.00 0.00 0.00 33 1022.2
20260510182149 28 161 0.0 0.0 0.00 0.00 0.00 33 1022.0
20260510181647 27 161 0.0 0.0 0.00 0.00 0.00 36 1022.1
20260510181143 27 161 0.0 0.0 0.00 0.00 0.00 36 1021.6
20260510180639 27 161 0.0 0.0 0.00 0.00 0.00 36 1021.7
20260510180137 29 161 0.0 0.0 0.00 0.00 0.00 32 1021.9
20260510175633 28 161 0.0 0.0 0.00 0.00 0.00 35 1021.8
20260510175128 28 161 0.0 0.0 0.00 0.00 0.00 35 1022.0
20260510174626 28 161 0.0 0.0 0.00 0.00 0.00 34 1021.8
20260510174124 28 161 0.0 0.0 0.00 0.00 0.00 33 1021.8
20260510173619 27 161 0.0 0.0 0.00 0.00 0.00 37 1021.7
20260510173116 27 161 0.0 0.0 0.00 0.00 0.00 36 1021.8
20260510172611 27 161 0.0 0.0 0.00 0.00 0.00 37 1021.6
20260510172108 26 161 0.0 0.0 0.00 0.00 0.00 40 1021.9
20260510171604 26 161 0.0 0.0 0.00 0.00 0.00 36 1021.4
20260510171103 26 161 0.0 0.0 0.00 0.00 0.00 40 1021.4
20260510170558 25 161 0.0 0.0 0.00 0.00 0.00 41 1021.7
20260510170055 25 161 0.0 0.0 0.00 0.00 0.00 41 1021.6
20260510165551 25 161 0.0 0.0 0.00 0.00 0.00 41 1021.6
20260510165047 25 161 0.0 0.0 0.00 0.00 0.00 43 1021.6
20260510164545 23 161 0.0 0.0 0.00 0.00 0.00 46 1021.4
20260510164040 23 161 0.0 0.0 0.00 0.00 0.00 44 1021.2
20260510163536 23 161 0.0 0.0 0.00 0.00 0.00 44 1021.3
20260510163033 22 161 0.0 0.0 0.00 0.00 0.00 48 1021.1
20260510162528 22 162 0.0 0.0 0.00 0.00 0.00 51 1021.4
20260510162025 21 162 0.0 0.0 0.00 0.00 0.00 52 1021.6
20260510161520 22 162 0.0 0.0 0.00 0.00 0.00 51 1021.3
20260510161017 22 162 0.0 0.0 0.00 0.00 0.00 53 1021.1
20260510160509 22 162 0.0 0.0 0.00 0.00 0.00 53 1021.0
20260510160008 21 162 0.0 0.0 0.00 0.00 0.00 55 1020.8
20260510155505 20 162 0.0 0.0 0.00 0.00 0.00 54 1020.9
20260510155001 21 162 0.0 0.0 0.00 0.00 0.00 55 1020.8
20260510154457 21 162 0.0 0.0 0.00 0.00 0.00 56 1020.8
20260510153956 21 162 0.0 0.0 0.00 0.00 0.00 57 1020.8
20260510153452 20 162 0.0 0.0 0.00 0.00 0.00 59 1020.7
20260510152949 20 162 0.0 0.0 0.00 0.00 0.00 60 1020.7
20260510152447 20 162 0.0 0.0 0.00 0.00 0.00 62 1020.8
20260510151943 20 162 0.0 0.0 0.00 0.00 0.00 63 1020.7
20260510151440 20 162 0.0 0.0 0.00 0.00 0.00 61 1020.6
20260510150936 20 162 0.0 0.0 0.00 0.00 0.00 61 1020.8
20260510150431 20 162 0.0 0.0 0.00 0.00 0.00 64 1020.9
20260510145927 20 162 0.0 0.0 0.00 0.00 0.00 65 1020.9
20260510145419 20 162 0.0 0.0 0.00 0.00 0.00 65 1021.0
20260510144916 20 162 0.0 0.0 0.00 0.00 0.00 65 1021.1
20260510144412 20 162 0.0 0.0 0.00 0.00 0.00 65 1021.0
20260510143907 20 162 0.0 0.0 0.00 0.00 0.00 63 1020.9
20260510143404 20 162 0.0 0.0 0.00 0.00 0.00 64 1021.0
20260510142901 21 162 0.0 0.0 0.00 0.00 0.00 62 1021.1
20260510142357 21 162 0.0 0.0 0.00 0.00 0.00 63 1020.8
20260510141854 21 162 0.0 0.0 0.00 0.00 0.00 64 1020.7
20260510141351 20 162 0.0 0.0 0.00 0.00 0.00 65 1020.6
20260510140848 20 162 0.0 0.0 0.00 0.00 0.00 68 1020.7
20260510140343 20 162 0.0 0.0 0.00 0.00 0.00 67 1020.5
20260510135837 20 162 0.0 0.0 0.00 0.00 0.00 66 1020.6
20260510135333 20 162 0.0 0.0 0.00 0.00 0.00 66 1020.5
20260510134831 20 162 0.0 0.0 0.00 0.00 0.00 68 1020.4
20260510134328 19 162 0.0 0.0 0.00 0.00 0.00 69 1020.4
20260510133824 19 162 0.0 0.0 0.00 0.00 0.00 69 1020.0
20260510133320 19 162 0.0 0.0 0.00 0.00 0.00 68 1020.2
20260510132816 19 162 0.0 0.0 0.00 0.00 0.00 69 1020.1
20260510132314 18 162 0.0 0.0 0.00 0.00 0.00 70 1020.0
20260510131811 18 162 0.0 0.0 0.00 0.00 0.00 71 1019.9
20260510131308 18 162 0.0 0.0 0.00 0.00 0.00 74 1019.8
20260510130805 17 162 0.0 0.0 0.00 0.00 0.00 75 1019.7
20260510130302 17 162 0.0 0.0 0.00 0.00 0.00 77 1019.6
20260510125758 17 162 0.0 0.0 0.00 0.00 0.00 76 1019.7
20260510125254 16 162 0.0 0.0 0.00 0.00 0.00 79 1019.7
20260510124751 16 162 0.0 0.0 0.00 0.00 0.00 81 1019.5
20260510124248 16 162 0.0 0.0 0.00 0.00 0.00 83 1019.6
20260510123744 15 162 0.0 0.0 0.00 0.00 0.00 85 1019.3
20260510123240 15 162 0.0 0.0 0.00 0.00 0.00 86 1019.2
20260510122736 14 162 0.0 0.0 0.00 0.00 0.00 88 1019.1
20260510122233 14 162 0.0 0.0 0.00 0.00 0.00 88 1019.1
20260510121729 13 162 0.0 0.0 0.00 0.00 0.00 90 1018.7
20260510121227 13 162 0.0 0.0 0.00 0.00 0.00 91 1018.7
20260510120724 13 162 0.0 0.0 0.00 0.00 0.00 92 1018.7
20260510120220 13 162 0.0 0.0 0.00 0.00 0.00 93 1018.6
20260510115716 12 162 0.0 0.0 0.00 0.00 0.00 94 1018.6
20260510115214 12 162 0.0 0.0 0.00 0.00 0.00 95 1018.4
20260510114709 11 162 0.0 0.0 0.00 0.00 0.00 95 1018.6
20260510114207 11 161 0.0 0.0 0.00 0.00 0.00 95 1018.6
20260510113701 11 161 0.0 0.0 0.00 0.00 0.00 95 1018.4
20260510113158 11 161 0.0 0.0 0.00 0.00 0.00 94 1018.2
20260510112654 11 161 0.0 0.0 0.00 0.00 0.00 94 1017.9
20260510112152 11 161 0.0 0.0 0.00 0.00 0.00 94 1018.2
20260510111642 11 161 0.0 0.0 0.00 0.00 0.00 94 1017.7
20260510111139 11 161 0.0 0.0 0.00 0.00 0.00 94 1017.8
20260510110634 11 161 0.0 0.0 0.00 0.00 0.00 95 1018.0
20260510110131 11 161 0.0 0.0 0.00 0.00 0.00 96 1017.7
20260510105626 11 161 0.0 0.0 0.00 0.00 0.00 96 1017.7
20260510105121 11 161 0.0 0.0 0.00 0.00 0.00 96 1017.6
20260510104618 11 161 0.0 0.0 0.00 0.00 0.00 96 1017.6
20260510104115 11 161 0.0 0.0 0.00 0.00 0.00 96 1017.7
20260510103612 11 161 0.0 0.0 0.00 0.00 0.00 96 1017.6
20260510103108 11 161 0.0 0.0 0.00 0.00 0.00 95 1017.9
20260510102603 11 161 0.0 0.0 0.00 0.00 0.00 94 1017.8
20260510102059 11 161 0.0 0.0 0.00 0.00 0.00 95 1017.7
20260510101557 12 161 0.0 0.0 0.00 0.00 0.00 95 1017.8
20260510101055 12 161 0.0 0.0 0.00 0.00 0.00 94 1017.7
20260510100551 12 161 0.0 0.0 0.00 0.00 0.00 94 1017.4
20260510100049 12 161 0.0 0.0 0.00 0.00 0.00 94 1017.3
20260510095544 12 161 0.0 0.0 0.00 0.00 0.00 93 1017.3
20260510095044 12 161 0.0 0.0 0.00 0.00 0.00 93 1017.2
20260510094544 12 161 0.0 0.0 0.00 0.00 0.00 93 1017.2
20260510094039 12 161 0.0 0.0 0.00 0.00 0.00 93 1017.1
20260510093535 12 161 0.0 0.0 0.00 0.00 0.00 93 1017.4
20260510093032 12 161 0.0 0.0 0.00 0.00 0.00 94 1017.2
20260510092530 12 161 0.0 0.0 0.00 0.00 0.00 94 1016.9
20260510092029 12 161 0.0 0.0 0.00 0.00 0.00 93 1016.8
20260510091526 12 161 0.0 0.0 0.00 0.00 0.00 93 1016.8
20260510091023 12 161 0.0 0.0 0.00 0.00 0.00 93 1016.9
20260510090520 12 161 0.0 0.0 0.00 0.00 0.00 92 1016.9
20260510090016 12 161 0.0 0.0 0.00 0.00 0.00 91 1016.6
20260510085515 13 161 0.0 0.0 0.00 0.00 0.00 91 1016.7
20260510085012 13 161 0.0 0.0 0.00 0.00 0.00 90 1016.7
20260510084509 13 161 0.0 0.0 0.00 0.00 0.00 89 1016.6
20260510084005 13 161 0.0 0.0 0.00 0.00 0.00 88 1016.7
20260510083502 13 161 0.0 0.0 0.00 0.00 0.00 88 1016.5
20260510082957 13 161 0.0 0.0 0.00 0.00 0.00 85 1016.5
20260510082455 13 161 0.0 0.0 0.00 0.00 0.00 86 1016.5
20260510081955 13 162 0.0 0.0 0.00 0.00 0.00 88 1016.3
20260510081450 13 162 0.0 0.0 0.00 0.00 0.00 90 1016.3
20260510080947 13 162 0.0 0.0 0.00 0.00 0.00 90 1016.0
20260510080445 13 162 0.0 0.0 0.00 0.00 0.00 88 1016.5
20260510075942 13 162 0.0 0.0 0.00 0.00 0.00 89 1016.8
20260510075440 13 162 0.0 0.0 0.00 0.00 0.00 88 1016.8
20260510074937 13 162 0.0 0.0 0.00 0.00 0.00 87 1016.7
20260510074434 13 162 0.0 0.0 0.00 0.00 0.00 87 1016.6
20260510073930 13 162 0.0 0.0 0.00 0.00 0.00 87 1016.6
20260510073426 13 162 0.0 0.0 0.00 0.00 0.00 87 1016.5
20260510072922 13 162 0.0 0.0 0.00 0.00 0.00 83 1016.4
20260510072420 13 162 0.0 0.0 0.00 0.00 0.00 86 1016.5
20260510071915 13 162 0.0 0.0 0.00 0.00 0.00 86 1016.4
20260510071412 13 162 0.0 0.0 0.00 0.00 0.00 84 1016.5
20260510070910 13 162 0.0 0.0 0.00 0.00 0.00 83 1016.6
20260510070407 13 162 0.0 0.0 0.00 0.00 0.00 85 1016.5
20260510065902 14 162 0.0 0.0 0.00 0.00 0.00 82 1016.5
20260510065359 14 162 0.0 0.0 0.00 0.00 0.00 80 1016.5
20260510064855 15 162 0.0 0.0 0.00 0.00 0.00 81 1016.6
20260510064353 15 162 0.0 0.0 0.00 0.00 0.00 78 1016.6
20260510063849 14 162 0.0 0.0 0.00 0.00 0.00 80 1016.4
20260510063346 15 162 0.0 0.0 0.00 0.00 0.00 80 1016.5
20260510062843 15 162 0.0 0.0 0.00 0.00 0.00 78 1016.6
20260510062338 15 162 0.0 0.0 0.00 0.00 0.00 78 1016.6
20260510061834 15 162 0.0 0.0 0.00 0.00 0.00 79 1016.7
20260510061331 15 162 0.0 0.0 0.00 0.00 0.00 79 1016.6
20260510060826 15 162 0.0 0.0 0.00 0.00 0.00 78 1016.6
20260510060324 15 162 0.0 0.0 0.00 0.00 0.00 77 1016.5
20260510055821 16 162 0.0 0.0 0.00 0.00 0.00 75 1016.4
20260510055319 16 162 0.0 0.0 0.00 0.00 0.00 73 1016.3
20260510054819 16 162 0.0 0.0 0.00 0.00 0.00 71 1016.3
20260510054315 16 162 0.0 0.0 0.00 0.00 0.00 71 1016.3
20260510053810 16 162 0.0 0.0 0.00 0.00 0.00 71 1016.2
20260510053306 17 162 0.0 0.0 0.00 0.00 0.00 70 1016.2
20260510052802 16 162 0.0 0.0 0.00 0.00 0.00 71 1016.3
20260510052258 17 162 0.0 0.0 0.00 0.00 0.00 72 1016.3
20260510051754 16 162 0.0 0.0 0.00 0.00 0.00 72 1016.3
20260510051251 17 162 0.0 0.0 0.00 0.00 0.00 72 1016.0
20260510050748 16 162 0.0 0.0 0.00 0.00 0.00 73 1016.2
20260510050245 16 162 0.0 0.0 0.00 0.00 0.00 77 1016.0
20260510045742 17 162 0.0 0.0 0.00 0.00 0.00 73 1015.8
20260510045238 16 162 0.0 0.0 0.00 0.00 0.00 74 1015.9
20260510044735 16 162 0.0 0.0 0.00 0.00 0.00 74 1015.9
20260510044233 16 162 0.0 0.0 0.00 0.00 0.00 75 1015.7
20260510043728 15 162 0.0 0.0 0.00 0.00 0.00 75 1015.7
20260510043225 15 162 0.0 0.0 0.00 0.00 0.00 78 1015.9
20260510042722 15 162 0.0 0.0 0.00 0.00 0.00 77 1015.9
20260510042218 16 162 0.0 0.0 0.00 0.00 0.00 77 1016.0
20260510041715 16 162 0.0 0.0 0.00 0.00 0.00 77 1016.2
20260510041213 16 162 0.0 0.0 0.00 0.00 0.00 73 1015.9
20260510040709 16 162 0.0 0.0 0.00 0.00 0.00 72 1015.8
20260510040206 16 162 0.0 0.0 0.00 0.00 0.00 71 1015.7
20260510035701 15 162 0.0 0.0 0.00 0.00 0.00 73 1015.7
20260510035157 15 162 0.0 0.0 0.00 0.00 0.00 75 1015.6
20260510034653 15 162 0.0 0.0 0.00 0.00 0.00 79 1015.3
20260510034151 15 162 0.0 0.0 0.00 0.00 0.00 79 1015.4
20260510033647 15 162 0.0 0.0 0.00 0.00 0.00 76 1015.7
20260510033145 15 162 0.0 0.0 0.00 0.00 0.00 76 1015.7
20260510032641 15 162 0.0 0.0 0.00 0.00 0.00 79 1015.5
20260510032136 15 162 0.0 0.0 0.00 0.00 0.00 79 1015.5
20260510031631 15 162 0.0 0.0 0.00 0.00 0.00 79 1015.5
20260510031129 15 162 0.0 0.0 0.00 0.00 0.00 78 1015.4
20260510030623 15 162 0.0 0.0 0.00 0.00 0.00 77 1015.4
20260510030121 15 162 0.0 0.0 0.00 0.00 0.00 77 1015.4
20260510025618 15 162 0.0 0.0 0.00 0.00 0.00 76 1015.2
20260510025115 16 162 0.0 0.0 0.00 0.00 0.00 75 1015.3
20260510024612 16 162 0.0 0.0 0.00 0.00 0.00 76 1015.3
20260510024108 16 162 0.0 0.0 0.00 0.00 0.00 72 1015.3
20260510023604 17 162 0.0 0.0 0.00 0.00 0.00 68 1014.9
20260510023102 16 161 0.0 0.0 0.00 0.00 0.00 70 1014.8
20260510022601 16 162 0.0 0.0 0.00 0.00 0.00 72 1014.6
20260510022056 16 162 0.0 0.0 0.00 0.00 0.00 76 1014.4
20260510021552 17 162 0.0 0.0 0.00 0.00 0.00 73 1014.4
20260510021050 17 162 0.0 0.0 0.00 0.00 0.00 71 1014.6
20260510020544 17 162 0.0 0.0 0.00 0.00 0.00 72 1014.5
20260510020040 17 161 0.0 0.0 0.00 0.00 0.00 72 1014.0
20260510015536 18 162 0.0 0.0 0.00 0.00 0.00 68 1014.1
20260510015032 18 162 0.0 0.0 0.00 0.00 0.00 66 1014.1
20260510014529 18 162 0.0 0.0 0.00 0.00 0.00 66 1013.8
20260510014026 18 162 0.0 0.0 0.00 0.00 0.00 67 1013.7
20260510013520 19 162 0.0 0.0 0.00 0.00 0.00 65 1013.6
20260510013016 19 161 0.0 0.0 0.00 0.00 0.00 64 1013.7
20260510012510 20 161 0.0 0.0 0.00 0.00 0.00 61 1013.5
20260510012007 20 161 0.0 0.0 0.00 0.00 0.00 60 1013.3
20260510011501 20 161 0.0 0.0 0.00 0.00 0.00 60 1013.5
20260510010957 21 162 0.0 0.0 0.00 0.00 0.00 58 1013.3
20260510010454 21 162 0.0 0.0 0.00 0.00 0.00 54 1013.6
20260510005951 22 162 0.0 0.0 0.00 0.00 0.00 54 1013.6
20260510005447 22 162 0.0 0.0 0.00 0.00 0.00 53 1013.1
20260510004945 23 162 0.0 0.0 0.00 0.00 0.00 52 1013.2
20260510004442 25 162 0.0 0.0 0.00 0.00 0.00 48 1013.1
20260510003940 26 162 0.0 0.0 0.00 0.00 0.00 43 1013.0
20260510003437 26 162 0.0 0.0 0.00 0.00 0.00 39 1013.1
20260510002937 27 162 0.0 0.0 0.00 0.00 0.00 38 1012.9
20260510002433 27 162 0.0 0.0 0.00 0.00 0.00 38 1012.8
20260510001929 27 162 0.0 0.0 0.00 0.00 0.00 36 1012.9
20260510001427 28 162 0.0 0.0 0.00 0.00 0.00 36 1012.9
20260510000925 28 162 0.0 0.0 0.00 0.00 0.00 37 1013.1
20260510000421 28 162 0.0 0.0 0.00 0.00 0.00 38 1013.2
20260509235917 29 162 0.0 0.0 0.00 0.00 0.00 35 1013.0
20260509235409 30 161 0.0 0.0 0.00 0.00 0.00 37 1013.2
20260509234904 30 162 0.0 0.0 0.00 0.00 0.00 37 1012.9
20260509234402 31 162 0.0 0.0 0.00 0.00 0.00 36 1013.0
20260509233900 31 161 0.0 0.0 0.00 0.00 0.00 33 1013.1
20260509233357 32 161 0.0 0.0 0.00 0.00 0.00 29 1013.3
20260509232852 33 161 0.0 0.0 0.00 0.00 0.00 30 1013.1
20260509232351 34 161 0.0 0.0 0.00 0.00 0.00 30 1013.2
20260509231846 34 161 0.0 0.0 0.00 0.00 0.00 28 1013.0
20260509231344 34 161 0.0 0.0 0.00 0.00 0.00 28 1013.2
20260509230842 35 161 0.0 0.0 0.00 0.00 0.00 26 1013.0
20260509230338 35 161 0.0 0.0 0.00 0.00 0.00 24 1013.1
20260509225833 34 161 0.0 0.0 0.00 0.00 0.00 25 1013.2
20260509225331 34 161 0.0 0.0 0.00 0.00 0.00 32 1013.1
20260509224826 36 161 0.0 0.0 0.00 0.00 0.00 26 1013.1
20260509224322 36 161 0.0 0.0 0.00 0.00 0.00 26 1013.0
20260509223820 36 161 0.0 0.0 0.00 0.00 0.00 25 1013.0
20260509223316 37 161 0.0 0.0 0.00 0.00 0.00 24 1013.1
20260509222813 37 161 0.0 0.0 0.00 0.00 0.00 25 1013.1
20260509222309 37 161 0.0 0.0 0.00 0.00 0.00 25 1013.0
20260509221804 38 161 0.0 0.0 0.00 0.00 0.00 22 1013.0
20260509221302 38 161 0.0 0.0 0.00 0.00 0.00 21 1013.0
20260509220756 38 161 0.0 0.0 0.00 0.00 0.00 26 1013.2
20260509220248 38 161 0.0 0.0 0.00 0.00 0.00 22 1013.2
20260509215743 38 161 0.0 0.0 0.00 0.00 0.00 22 1013.3
20260509215240 38 161 0.0 0.0 0.00 0.00 0.00 23 1013.2
20260509214737 38 161 0.0 0.0 0.00 0.00 0.00 24 1013.2
20260509214234 38 161 0.0 0.0 0.00 0.00 0.00 21 1013.3
20260509213731 41 161 0.0 0.0 0.00 0.00 0.00 22 1013.2
20260509213226 42 161 0.0 0.0 0.00 0.00 0.00 19 1013.1
20260509212725 42 161 0.0 0.0 0.00 0.00 0.00 19 1013.3
20260509212221 40 161 0.0 0.0 0.00 0.00 0.00 21 1013.2
20260509211717 41 161 0.0 0.0 0.00 0.00 0.00 20 1013.2
20260509211214 41 161 0.0 0.0 0.00 0.00 0.00 21 1013.1
20260509210710 41 161 0.0 0.0 0.00 0.00 0.00 21 1013.2
20260509210208 42 161 0.0 0.0 0.00 0.00 0.00 21 1013.1
20260509205707 41 161 0.0 0.0 0.00 0.00 0.00 22 1013.1
20260509205206 40 161 0.0 0.0 0.00 0.00 0.00 22 1013.1
20260509204703 40 161 0.0 0.0 0.00 0.00 0.00 20 1013.5
20260509204159 40 161 0.0 0.0 0.00 0.00 0.00 21 1013.2